Weather in Paninskaya Sloboda

Russia / Ryazan Oblast     54°14′05″N   39°45′16″E
temp.,
°C
wind,
m/s
gust,
m/s
humid.,
%
clouds,
%
prec.,
mm/h
press.,
hPa
HPBL,
m
23 june, wed
wed2300:00+21ese11700 0.0 102111
03:00+19ese11730 0.0 102111
06:00+22ene22760 0.0 102239
09:00+26ene22640 0.0 1021334
12:00+29ese22560 0.0 1021962
15:00+30e12512 0.0 10211400
18:00+30e12620 0.0 1020973
21:00+24wnw11700 0.0 102011
24 june, thu
thu2400:00+22nnw22750 0.0 102112
03:00+21nw22760 0.0 102112
06:00+23n23800 0.0 102171
09:00+27n23680 0.1 1021433
12:00+29nne22600 0.0 10211060
15:00+31e22510 0.0 10201599
18:00+30ese12610 0.0 10191001
21:00+25wsw11660 0.0 101911
25 june, fri
fri2500:00+23w22710 0.0 101911
03:00+21nne12780 0.0 101911
06:00+24s11770 0.0 101943
09:00+27sse11650 0.0 1018371
12:00+30sse22550 0.1 10181091
15:00+31sse23510 0.1 10171898
18:00+29ese3567100 0.2 1015323
21:00+20ssw358177 0.8 101660
26 june, sat
sat2600:00+19wsw22845 0.5 101622
03:00+19se338738 0.5 101530
06:00+21ssw22856 0.0 101585
09:00+26ssw22694 0.0 1015379
12:00+29s125696 1.1 10151094
15:00+30s225399 1.1 10141589
18:00+30s136112 0.0 10141564
21:00+24sse22740 0.0 101312
27 june, sun
sun2700:00+22s11801 0.0 101311
03:00+21s118728 1.6 101411
06:00+22se238721 0.0 101499
09:00+27s237131 0.0 1014441
12:00+30ssw44597 0.1 10141282
15:00+31sw225425 0.1 10141532
18:00+30s22620 0.0 1012927
21:00+25e117752 0.8 101311